Location: Bidart
(43.4376°N, 1.5913°W)
Time: 05:35:52
(UTC+00:00)

Cosmos 1535 Rocket - Pass Details

Date: 19 May 2025
Orbit: 947 x 1003 km, 83.0° (Epoch: 13 June)

Event Time Altitude Azimuth Distance (km) Brightness Sun altitude
Rises 23:13:18 0° 353° (N) 3,722 8.9 -25.6°
Reaches altitude 10° 23:15:51 10° 355° (N) 2,762 7.9 -25.7°
Maximum altitude 23:22:12 76° 81° (E) 1,012 4.5 -25.9°
Enters shadow 23:23:18 61° 145° (SE) 1,103 4.4 -25.9°
